CST,Max TemperatureF,Mean TemperatureF,Min TemperatureF,Max Dew PointF,MeanDew PointF,Min DewpointF,Max Humidity, Mean Humidity, Min Humidity, Max Sea Level PressureIn, Mean Sea Level PressureIn, Min Sea Level PressureIn, Max VisibilityMiles, Mean VisibilityMiles, Min VisibilityMiles, Max Wind SpeedMPH, Mean Wind SpeedMPH, Max Gust SpeedMPH,PrecipitationIn, CloudCover, Events, WindDirDegrees
2011-11-1,50,42,32,39,33,25,100,75,37,30.29,30.04,29.88,10,10,10,20,14,24,0.00,2,,315
2011-11-2,30,27,24,25,24,21,86,80,75,30.39,30.33,30.30,10,10,10,13,11,,0.00,0,,301
2011-11-3,28,25,24,18,17,16,69,67,64,30.17,30.15,30.12,10,10,10,12,11,,0.00,0,,183
2011-11-4,53,42,32,28,26,23,70,55,33,29.75,29.65,29.58,10,10,10,15,11,23,0.00,0,,149
2011-11-5,41,39,37,32,31,28,81,74,70,29.58,29.48,29.31,10,10,10,15,10,,0.00,0,,152
2011-11-6,,,,,,,,,,,,,,,,,,,,,,
2011-11-7,42,35,28,25,17,14,59,45,36,30.14,30.12,30.11,10,10,10,16,9,20,0.00,1,,216
2011-11-8,48,36,23,21,18,16,80,56,27,30.14,30.09,30.05,10,10,9,16,10,24,0.00,0,,232
2011-11-9,41,32,24,25,21,16,93,69,42,30.30,30.25,30.18,10,10,10,29,16,40,0.00,0,,304
2011-11-10,44,29,14,25,18,14,100,65,34,30.26,30.05,29.72,10,10,10,17,10,25,0.00,2,,223
2011-11-11,57,45,33,25,21,16,60,42,27,29.64,29.56,29.43,10,10,9,21,11,26,0.00,0,,261
2011-11-12,55,42,30,25,18,14,60,41,25,29.42,29.29,29.21,10,10,5,14,7,18,0.00,2,,245
2011-11-13,48,40,32,32,28,19,100,70,32,29.30,29.27,29.23,10,10,9,23,15,30,0.00,5,,265
2011-11-14,46,38,30,36,27,16,100,74,31,29.47,29.40,29.34,10,10,1,22,15,30,0.18,2,Rain-Snow,264
2011-11-15,32,24,17,32,21,12,100,75,51,29.93,29.72,29.51,10,10,9,32,15,40,0.00,6,Rain,284
2011-11-16,26,20,14,23,14,9,100,79,50,30.16,30.09,29.95,10,10,3,28,16,36,0.76,2,Snow,296
2011-11-17,32,21,10,19,12,9,100,73,41,30.15,29.93,29.63,10,10,10,20,9,26,0.00,4,,156
2011-11-18,39,26,14,27,18,10,93,65,39,29.91,29.69,29.53,10,10,9,20,13,25,0.00,6,Snow,305
2011-11-19,15,10,6,14,7,5,93,87,79,30.21,30.04,29.87,10,9,2,21,13,24,0.10,6,Rain-Snow,14
2011-11-20,19,10,1,18,9,0,100,93,85,30.20,30.14,30.05,10,10,4,20,9,25,0.00,5,Rain-Snow,174
2011-11-21,32,19,6,25,15,5,100,93,74,30.10,30.05,29.97,10,9,0,12,6,,0.00,1,Fog-Snow,147
2011-11-22,48,32,15,32,24,16,100,83,46,29.97,29.93,29.88,10,10,10,15,8,,0.00,0,,197
2011-11-23,60,46,32,32,29,27,81,59,27,29.92,29.87,29.75,10,10,10,18,11,29,0.00,0,,208
2011-11-24,55,44,32,32,29,27,87,59,36,29.71,29.67,29.63,10,10,10,12,7,,0.00,0,,269
2011-11-25,37,32,28,36,32,28,100,99,81,29.80,29.69,29.64,10,8,3,15,8,18,0.00,4,,16
2011-11-26,35,28,21,34,19,5,100,66,30,30.39,30.20,29.90,10,10,4,37,21,47,0.00,2,,315
2011-11-27,44,29,14,18,13,9,100,57,25,30.36,30.14,29.86,10,10,10,17,10,22,0.00,0,,197
2011-11-28,48,36,23,32,25,19,86,55,39,30.36,30.07,29.83,10,10,10,25,14,37,0.00,0,,297
2011-11-29,46,32,17,27,22,18,100,76,43,30.37,30.23,30.02,10,10,8,22,8,30,0.00,0,,202
2011-11-30,35,30,26,32,29,25,100,92,75,30.36,30.01,29.87,10,8,1,17,7,24,0.36,8,Rain-Snow,21